TATIANA

Satellite information

Favourite Embed

Satellite Type and Status

PAYLOADIN ORBIT

Key statistics

Satellite TATIANA at a glance.

Uptime

7474

Days in orbit

Revolutions

≈ 13.9

Per day

Orbit

LEO

Low Earth Orbit

Inclination

83.0

Latest

Satellite identification and parameters

Extended collection of information and parameters for TATIANA.

Object identification

Identified? True

Debris? False

Object name: TATIANA

International designator: 2005-002C

Object number (NORAD): 28523

Object ID (CCSDS): 28523

Country: COMMONWEALTH OF INDEPENDENT STATES (CIS)

Current information (Y/N): Y

RCS size: MEDIUM

Orbital parameters

Period: 103.747 minutes

Inclination: 82.9508 deg

SMA: 7313.816 km

Apoapsis: 962.295 km

Periapsis: 909.066 km

RAAN: 307.1823 deg

Eccentricy: 0.0036389

Argument of periapsis: 243.797 deg

Mean anomaly: 115.945 deg

Mean motion: 13.87991331 rev/day

Mean motion (dot): 0.00000097 rev/day2

B* drag term: 0.000067834 1/REarth

Two-line elements (TLE)

Creation date: July 6, 2025, 6:05 p.m.

Reference frame: TEME

Reference center: EARTH

Epoch: July 6, 2025, 8:52 a.m. UTC

TLE line 0: 0 TATIANA

TLE line 1: 1 28523U 05002C 25187.36949876 .00000097 00000-0 67834-4 0 9990

TLE line 2: 2 28523 82.9508 307.1823 0036389 243.7970 115.9450 13.87991331 35984

Live tracking on map

Real-time ground track for satellite TATIANA.

In-orbit conjunctions

A list of the most updated potential collisions computed for object TATIANA.

Target Orbit TCA Probability of collision Miss distance Type
FENGYUN 1C DEB SSO 2024-09-16 12:24:45 0.0001168815 706.0 (m) DEBRIS
THORAD AGENA D DEB SSO 2024-09-05 10:05:39 0.0002282045 259.0 (m) DEBRIS

Associated space launch

Navigation satellite providing location information for the Tsiklon-B navigation system

TATIANA was lifted into orbit during the mission ‘Kosmos-3M | Parus 96’, on board a Kosmos-3M space rocket.

The launch took place on Jan. 20, 2005, 3 a.m. from 132/1 (132L).

For more information about the launch, click the button.

Launch to space Kosmos-3M | Parus 96
Kosmos-3M | Parus 96

Agency: N/A

Status: Launch Successful

Launch date: Jan. 20, 2005, 3 a.m. UTC

Rocket: Kosmos-3M

Launch pad: 132/1 (132L)

Location: Plesetsk Cosmodrome, Russian Federation

...

Latest news about this satellite

There are no fresh news available about this satellite. Check back as we update our databases every day.


Newsletter sign-up

Weekly statistics, charts and insights to help you stay on top of the space industry.